OBJECT H, 66673

Orbit data source: Space-Track

You're viewing an Uncataloged Satellite

Recently launched and/or uncataloged satellites may have evolving metadata. Metadata may include but not limited to: Owner, Maufacturer, Bus, Motor, and Mission.

OBJECT H, 66673 is a satellite in SSO that was launched on Fri, 28 Nov 2025 UTC via an FALCON 9 launch vehicle from the Air Force Western Test Range (AFWTR). Unknown objects in Earth's orbit typically refer to objects detected orbiting the Earth but have not yet been identified or cataloged. These objects could be anything from previously untracked satellites, spent rocket stages, debris from satellite collisions, or even natural meteoroids temporarily captured by Earth's gravity.

Loading next visibility...
Identifier
66673, 2025-276H
Orbit
SSO
Country
Flag of TBDTBD
Related business
None
Manufacturer
Unknown
Mission
Operational Commercial Imaging
Bus & Motor
Unknown
Mass
Unknown
Launch date (UTC)
2025-11-28 (6 months ago)
Launch vehicle
FALCON 9
Launch site
Air Force Western Test Range (AFWTR)
Object type
Unknown
Shape & HBR
Box, 0.2 m
Radar Cross Section
0.100 m²

Expand to show TLE details & history
Last TLE update: 13 hours ago

TLE from 13 hours ago
0 OBJECT H
1 66673U 25276H   26144.64037905  .00014598  00000-0  63674-3 0  9997
2 66673  97.4164 218.7610 0007751 100.5124 259.6986 15.22236975 26868
Epoch: 2026-05-24T15:22Z
TLE epoch observation values (Epoch: 2026-05-24T15:22:08.749Z)
Latitude
-0.00004°
Longitude
105.98493°
Altitude
503.145 km
Speed
7.612 km/s
True Right ascension
14h 35m 02s
True Declination
0° 00' 00"
Sunlit
Object was in full shadow at epoch
Visualization orbit readout
Latitude
Unknown
Longitude
Unknown
Altitude
Unknown
Speed
Unknown
Apparent Right ascension
Unknown
Apparent Declination
Unknown
Sunlit
N/A
Visualization observer readout
Local Sidereal Time
13:54:07
Azimuth
Unknown
Elevation
Unknown
Doppler factor
Unknown
Orbital elements
Apogee altitude
501.386 km
Perigee altitude
490.73 km
Semi-major axis
6,874.195 km
Eccentricity
0.00078
Inclination
97.4164°
RAAN
218.761°
Arg. of periapsis
100.5124°
True anomaly
259.61123°
Mean anomaly
259.6986°
Eccentric anomaly
259.65491°
Mean motion
3.80812 °/min
Orbital period
94.53 mins
BSTAR
0.00063674
Loading maneuver chart data...
Computing Atmospheric mass density...
Loading historical data...
Loading historical data...
Loading historical data...
Loading historical data...
Loading historical data...
Loading historical data...
Loading historical data...

Documentation

Showing up to 5 results
|